Location: Unspecified
(0.0000°N, 0.0000°E)
Time: 18:51:03
(UTC+00:00)

Transit 2A - Pass Details

Date: 20 November 2019
Orbit: 602 x 957 km, 66.7° (Epoch: 06 December)

Event Time Altitude Azimuth Distance (km) Brightness Sun altitude
Rises 21:55:20 0° 346° (NNW) 2,954 - -56.5°
Reaches altitude 10° 21:57:32 10° 349° (N) 2,087 - -56.9°
Maximum altitude 22:02:13 65° 71° (ENE) 783 - -57.9°
Drops below altitude 10° 22:07:26 10° 152° (SSE) 2,316 - -58.9°
Sets 22:09:59 0° 155° (SSE) 3,307 - -59.3°
